SAS2546 EGPH-ESSA

Flight info

Callsign SAS2546
Flight time 1h 44m
Altitude 37000
Route GRICE P600 ASNUD DCT KLONN DCT MASEV DCT ELTOK
Aircraft A321/M-SDE3FGHIRWY/LB1

Departure

Time 2026-05-07 14:45
Airport Edinburgh Airport (EGPH)

Arrival

Time 2026-05-07 16:30
Airport Stockholm-Arlanda Airport (ESSA)
Time Latitude Longitude Altitude Speed Heading
2026-05-07 13:51 55.94802 -3.36631 106 ft 0 kts 89°
2026-05-07 14:36 55.94802 -3.36633 106 ft 2 kts 89°
2026-05-07 14:36 55.94801 -3.36678 105 ft 4 kts 89°
2026-05-07 14:36 55.94799 -3.36725 105 ft 4 kts 71°
2026-05-07 14:37 55.94786 -3.36764 104 ft 4 kts 33°
2026-05-07 14:37 55.94771 -3.36775 104 ft 0 kts 357°
2026-05-07 14:42 55.94815 -3.36778 105 ft 12 kts 357°
2026-05-07 14:42 55.94901 -3.36808 104 ft 13 kts 332°
2026-05-07 14:42 55.94980 -3.36733 107 ft 18 kts 58°
2026-05-07 14:42 55.95051 -3.36525 108 ft 20 kts 59°
2026-05-07 14:43 55.95128 -3.36298 104 ft 23 kts 59°
2026-05-07 14:43 55.95214 -3.36041 101 ft 23 kts 59°
2026-05-07 14:43 55.95292 -3.35813 102 ft 22 kts 58°
2026-05-07 14:43 55.95372 -3.35578 105 ft 22 kts 58°
2026-05-07 14:44 55.95447 -3.35408 104 ft 14 kts 17°
2026-05-07 14:44 55.95548 -3.35490 101 ft 18 kts 324°
2026-05-07 14:44 55.95534 -3.35672 103 ft 24 kts 240°
2026-05-07 14:44 55.95299 -3.36360 102 ft 104 kts 239°
2026-05-07 14:45 55.94826 -3.37761 311 ft 145 kts 235°
2026-05-07 14:45 55.94309 -3.39266 1186 ft 142 kts 233°
2026-05-07 14:45 55.93787 -3.40733 1969 ft 142 kts 234°
2026-05-07 14:45 55.93229 -3.42331 2412 ft 162 kts 235°
2026-05-07 14:46 55.92603 -3.44131 2735 ft 183 kts 236°
2026-05-07 14:46 55.91895 -3.46170 3057 ft 202 kts 236°
2026-05-07 14:46 55.91151 -3.48328 3581 ft 206 kts 236°
2026-05-07 14:46 55.90396 -3.50536 4049 ft 215 kts 237°
2026-05-07 14:47 55.89861 -3.53201 4314 ft 245 kts 258°
2026-05-07 14:47 55.89909 -3.56309 5106 ft 258 kts 278°
2026-05-07 14:47 55.90605 -3.59336 5805 ft 273 kts 298°
2026-05-07 14:47 55.91959 -3.61753 5972 ft 281 kts 324°
2026-05-07 14:48 55.93802 -3.62977 6081 ft 291 kts 350°
2026-05-07 14:48 55.95847 -3.62725 6878 ft 297 kts 13°
2026-05-07 14:48 55.97845 -3.61726 7795 ft 299 kts 14°
2026-05-07 14:48 55.99850 -3.60689 8688 ft 301 kts 15°
2026-05-07 14:49 56.01870 -3.59625 9561 ft 304 kts 15°
2026-05-07 14:49 56.03920 -3.58538 10251 ft 314 kts 14°
2026-05-07 14:49 56.06091 -3.57383 10478 ft 337 kts 15°
2026-05-07 14:49 56.08407 -3.56151 10843 ft 353 kts 15°
2026-05-07 14:50 56.10786 -3.54882 11477 ft 360 kts 14°
2026-05-07 14:50 56.13203 -3.53590 12159 ft 364 kts 14°
2026-05-07 14:50 56.15646 -3.52281 12851 ft 369 kts 14°
2026-05-07 14:50 56.18089 -3.50968 13526 ft 373 kts 14°
2026-05-07 14:51 56.20599 -3.49621 14163 ft 377 kts 14°
2026-05-07 14:51 56.23126 -3.48266 14781 ft 381 kts 15°
2026-05-07 14:51 56.25675 -3.46898 15429 ft 384 kts 15°
2026-05-07 14:51 56.28245 -3.45510 16081 ft 387 kts 15°
2026-05-07 14:52 56.30830 -3.44114 16721 ft 391 kts 15°
2026-05-07 14:52 56.33446 -3.42702 17345 ft 393 kts 15°
2026-05-07 14:52 56.36072 -3.41279 17979 ft 396 kts 16°
2026-05-07 14:52 56.38726 -3.39835 18532 ft 399 kts 16°
2026-05-07 14:53 56.41400 -3.38385 19051 ft 403 kts 15°
2026-05-07 14:53 56.44043 -3.36631 19552 ft 407 kts 25°
2026-05-07 14:53 56.46511 -3.34089 20057 ft 411 kts 34°
2026-05-07 14:53 56.48877 -3.31148 20550 ft 414 kts 34°
2026-05-07 14:54 56.51266 -3.28169 21036 ft 418 kts 34°
2026-05-07 14:54 56.53673 -3.25179 21531 ft 421 kts 34°
2026-05-07 14:54 56.56104 -3.22161 21981 ft 426 kts 34°
2026-05-07 14:54 56.58557 -3.19116 22442 ft 429 kts 34°
2026-05-07 14:55 56.61032 -3.16040 22903 ft 433 kts 34°
2026-05-07 14:55 56.63524 -3.12935 23379 ft 436 kts 34°
2026-05-07 14:55 56.66033 -3.09794 23765 ft 440 kts 36°
2026-05-07 14:55 56.68399 -3.06243 24156 ft 442 kts 45°
2026-05-07 14:56 56.70427 -3.02045 24570 ft 443 kts 55°
2026-05-07 14:56 56.72096 -2.97338 24968 ft 444 kts 61°
2026-05-07 14:56 56.73648 -2.92549 25375 ft 446 kts 61°
2026-05-07 14:56 56.75229 -2.87673 25791 ft 448 kts 61°
2026-05-07 14:57 56.76816 -2.82775 26208 ft 450 kts 61°
2026-05-07 14:57 56.78412 -2.77844 26609 ft 452 kts 61°
2026-05-07 14:57 56.80010 -2.72890 26995 ft 455 kts 61°
2026-05-07 14:57 56.81479 -2.68325 27350 ft 457 kts 61°
2026-05-07 14:58 56.83052 -2.63431 27638 ft 462 kts 61°
2026-05-07 14:58 56.84680 -2.58345 27975 ft 466 kts 61°
2026-05-07 14:58 56.86321 -2.53205 28347 ft 468 kts 61°
2026-05-07 14:58 56.87966 -2.48046 28730 ft 471 kts 61°
2026-05-07 14:59 56.89616 -2.42853 29083 ft 474 kts 61°
2026-05-07 14:59 56.91273 -2.37620 29448 ft 476 kts 61°
2026-05-07 14:59 56.92936 -2.32356 29801 ft 478 kts 61°
2026-05-07 14:59 56.94530 -2.27306 30150 ft 479 kts 61°
2026-05-07 15:00 56.96200 -2.22005 30442 ft 481 kts 61°
2026-05-07 15:00 56.97877 -2.16672 30720 ft 483 kts 61°
2026-05-07 15:00 56.99556 -2.11323 30997 ft 485 kts 61°
2026-05-07 15:00 57.01232 -2.05960 31368 ft 484 kts 61°
2026-05-07 15:01 57.02900 -2.00613 31744 ft 483 kts 62°
2026-05-07 15:01 57.04565 -1.95264 32116 ft 482 kts 62°
2026-05-07 15:01 57.06228 -1.89914 32482 ft 481 kts 62°
2026-05-07 15:01 57.07885 -1.84572 32850 ft 480 kts 62°
2026-05-07 15:02 57.09404 -1.79669 33181 ft 480 kts 62°
2026-05-07 15:02 57.11054 -1.74335 33507 ft 480 kts 62°
2026-05-07 15:02 57.12703 -1.68992 33825 ft 480 kts 62°
2026-05-07 15:02 57.14353 -1.63638 34157 ft 480 kts 62°
2026-05-07 15:03 57.15993 -1.58301 34447 ft 480 kts 62°
2026-05-07 15:03 57.17632 -1.52941 34743 ft 479 kts 62°
2026-05-07 15:03 57.19264 -1.47588 35028 ft 479 kts 62°
2026-05-07 15:03 57.20895 -1.42224 35338 ft 479 kts 62°
2026-05-07 15:04 57.22522 -1.36870 35606 ft 478 kts 62°
2026-05-07 15:04 57.24147 -1.31510 35891 ft 478 kts 62°
2026-05-07 15:04 57.25764 -1.26162 36172 ft 478 kts 62°
2026-05-07 15:04 57.27383 -1.20793 36445 ft 478 kts 62°
2026-05-07 15:05 57.28998 -1.15433 36698 ft 477 kts 62°
2026-05-07 15:05 57.30613 -1.10063 36925 ft 477 kts 62°
2026-05-07 15:05 57.33831 -0.99311 36995 ft 485 kts 62°
2026-05-07 15:06 57.37114 -0.88301 37006 ft 490 kts 62°
2026-05-07 15:06 57.40400 -0.77224 36999 ft 492 kts 62°
2026-05-07 15:07 57.43688 -0.66065 37011 ft 493 kts 62°
2026-05-07 15:07 57.46978 -0.54883 37012 ft 493 kts 62°
2026-05-07 15:08 57.50259 -0.43679 37021 ft 494 kts 62°
2026-05-07 15:08 57.53526 -0.32438 37028 ft 494 kts 62°
2026-05-07 15:09 57.56790 -0.21147 37031 ft 494 kts 62°
2026-05-07 15:09 57.60042 -0.09855 37034 ft 494 kts 62°
2026-05-07 15:10 57.63296 0.01469 37028 ft 494 kts 62°
2026-05-07 15:10 57.66510 0.12710 37061 ft 494 kts 62°
2026-05-07 15:11 57.69735 0.24073 37051 ft 495 kts 63°
2026-05-07 15:11 57.72945 0.35467 37052 ft 496 kts 63°
2026-05-07 15:12 57.76154 0.46898 37052 ft 496 kts 63°
2026-05-07 15:12 57.79360 0.58349 37061 ft 496 kts 63°
2026-05-07 15:13 57.82018 0.67893 37051 ft 496 kts 63°
2026-05-07 15:13 57.85205 0.79376 37074 ft 496 kts 63°
2026-05-07 15:14 57.88380 0.90878 37076 ft 496 kts 63°
2026-05-07 15:14 57.91543 1.02399 37083 ft 496 kts 63°
2026-05-07 15:15 57.94701 1.13965 37091 ft 496 kts 63°
2026-05-07 15:15 57.97847 1.25551 37070 ft 497 kts 63°
2026-05-07 15:16 58.00985 1.37178 37082 ft 497 kts 63°
2026-05-07 15:16 58.04113 1.48816 37090 ft 497 kts 63°
2026-05-07 15:17 58.07233 1.60473 37086 ft 497 kts 63°
2026-05-07 15:17 58.10340 1.72157 37105 ft 497 kts 64°
2026-05-07 15:18 58.13438 1.83875 37096 ft 498 kts 64°
2026-05-07 15:18 58.16510 1.95514 37095 ft 497 kts 63°
2026-05-07 15:19 58.19590 2.07264 37110 ft 498 kts 63°
2026-05-07 15:19 58.22659 2.19039 37101 ft 499 kts 64°
2026-05-07 15:20 58.25730 2.30850 37108 ft 499 kts 64°
2026-05-07 15:20 58.28784 2.42708 37113 ft 500 kts 64°
2026-05-07 15:21 58.31829 2.54610 37115 ft 500 kts 64°
2026-05-07 15:21 58.34868 2.66518 37120 ft 500 kts 64°
2026-05-07 15:22 58.37900 2.78439 37128 ft 500 kts 64°
2026-05-07 15:22 58.40844 2.90448 37130 ft 500 kts 65°
2026-05-07 15:23 58.43633 3.02519 37134 ft 500 kts 66°
2026-05-07 15:23 58.46386 3.14714 37101 ft 499 kts 66°
2026-05-07 15:24 58.49149 3.26884 37123 ft 499 kts 66°
2026-05-07 15:24 58.51930 3.39058 37133 ft 499 kts 66°
2026-05-07 15:25 58.54702 3.51244 37138 ft 500 kts 66°
2026-05-07 15:25 58.57459 3.63482 37140 ft 500 kts 66°
2026-05-07 15:26 58.60190 3.75725 37142 ft 500 kts 66°
2026-05-07 15:26 58.62912 3.87985 37143 ft 499 kts 66°
2026-05-07 15:27 58.65624 4.00248 37146 ft 499 kts 66°
2026-05-07 15:27 58.68318 4.12528 37150 ft 499 kts 66°
2026-05-07 15:28 58.71001 4.24834 37148 ft 499 kts 66°
2026-05-07 15:28 58.73674 4.37141 37152 ft 498 kts 66°
2026-05-07 15:29 58.76343 4.49469 37144 ft 498 kts 66°
2026-05-07 15:29 58.78990 4.61814 37146 ft 498 kts 67°
2026-05-07 15:30 58.81623 4.74170 37151 ft 498 kts 67°
2026-05-07 15:30 58.84226 4.86448 37144 ft 497 kts 67°
2026-05-07 15:31 58.86831 4.98833 37146 ft 497 kts 67°
2026-05-07 15:31 58.89430 5.11220 37145 ft 497 kts 67°
2026-05-07 15:32 58.92016 5.23604 37153 ft 496 kts 67°
2026-05-07 15:32 58.94587 5.36018 37141 ft 496 kts 67°
2026-05-07 15:33 58.97140 5.48449 37134 ft 497 kts 67°
2026-05-07 15:33 58.99684 5.60912 37132 ft 497 kts 67°
2026-05-07 15:34 59.02222 5.73416 37147 ft 498 kts 67°
2026-05-07 15:34 59.04751 5.85929 37143 ft 498 kts 68°
2026-05-07 15:35 59.07268 5.98484 37124 ft 498 kts 68°
2026-05-07 15:35 59.09772 6.11051 37126 ft 499 kts 68°
2026-05-07 15:36 59.12262 6.23636 37121 ft 499 kts 68°
2026-05-07 15:36 59.14730 6.36161 37119 ft 499 kts 68°
2026-05-07 15:37 59.17202 6.48788 37145 ft 499 kts 68°
2026-05-07 15:37 59.19667 6.61452 37131 ft 499 kts 68°
2026-05-07 15:38 59.22115 6.74146 37132 ft 500 kts 68°
2026-05-07 15:38 59.24550 6.86859 37131 ft 500 kts 68°
2026-05-07 15:39 59.26981 6.99603 37140 ft 500 kts 68°
2026-05-07 15:39 59.29407 7.12364 37137 ft 500 kts 68°
2026-05-07 15:40 59.31809 7.25138 37143 ft 500 kts 68°
2026-05-07 15:40 59.34185 7.37905 37145 ft 499 kts 69°
2026-05-07 15:41 59.36557 7.50700 37128 ft 499 kts 69°
2026-05-07 15:41 59.38916 7.63488 37129 ft 499 kts 69°
2026-05-07 15:42 59.41271 7.76283 37104 ft 499 kts 69°
2026-05-07 15:42 59.43602 7.89134 37091 ft 500 kts 69°
2026-05-07 15:43 59.45924 8.02024 37101 ft 500 kts 69°
2026-05-07 15:43 59.48231 8.14861 37102 ft 501 kts 69°
2026-05-07 15:44 59.50547 8.27808 37109 ft 501 kts 69°
2026-05-07 15:44 59.52843 8.40766 37097 ft 501 kts 69°
2026-05-07 15:45 59.55117 8.53758 37099 ft 501 kts 69°
2026-05-07 15:45 59.57385 8.66740 37102 ft 501 kts 69°
2026-05-07 15:46 59.60763 8.86259 37075 ft 500 kts 69°
2026-05-07 15:47 59.62991 8.99281 37074 ft 501 kts 69°
2026-05-07 15:47 59.65221 9.12362 37085 ft 502 kts 69°
2026-05-07 15:48 59.67436 9.25467 37084 ft 503 kts 69°
2026-05-07 15:48 59.69641 9.38608 37090 ft 503 kts 69°
2026-05-07 15:49 59.71836 9.51752 37085 ft 503 kts 70°
2026-05-07 15:49 59.74015 9.64929 37087 ft 503 kts 70°
2026-05-07 15:50 59.76179 9.78122 37095 ft 503 kts 70°
2026-05-07 15:50 59.78331 9.91336 37092 ft 503 kts 70°
2026-05-07 15:51 59.80473 10.04558 37086 ft 503 kts 70°
2026-05-07 15:51 59.82601 10.17783 37082 ft 503 kts 70°
2026-05-07 15:52 59.84699 10.30981 37089 ft 504 kts 70°
2026-05-07 15:52 59.86811 10.44390 37100 ft 505 kts 70°
2026-05-07 15:53 59.88889 10.57640 37102 ft 505 kts 70°
2026-05-07 15:53 59.90978 10.71095 37105 ft 505 kts 71°
2026-05-07 15:54 59.93049 10.84477 37110 ft 505 kts 71°
2026-05-07 15:54 59.95099 10.97785 37114 ft 505 kts 71°
2026-05-07 15:55 59.97141 11.11196 37111 ft 505 kts 71°
2026-05-07 15:55 59.99167 11.24608 37114 ft 505 kts 71°
2026-05-07 15:56 60.01169 11.38015 37077 ft 503 kts 71°
2026-05-07 15:56 60.03169 11.51450 37094 ft 504 kts 71°
2026-05-07 15:57 60.05155 11.64922 37104 ft 505 kts 71°
2026-05-07 15:57 60.07123 11.78414 37108 ft 505 kts 72°
2026-05-07 15:58 60.08746 11.89656 37108 ft 505 kts 72°
2026-05-07 15:58 60.10691 12.03194 37110 ft 505 kts 72°
2026-05-07 15:59 60.12626 12.16723 37107 ft 505 kts 72°
2026-05-07 15:59 60.14550 12.30293 37108 ft 505 kts 72°
2026-05-07 16:00 60.16448 12.43865 37104 ft 505 kts 72°
2026-05-07 16:00 60.17386 12.57812 37084 ft 506 kts 92°
2026-05-07 16:01 60.16622 12.71854 37086 ft 506 kts 98°
2026-05-07 16:01 60.15738 12.85895 37094 ft 508 kts 98°
2026-05-07 16:02 60.14842 12.99956 37100 ft 508 kts 98°
2026-05-07 16:02 60.13915 13.14028 37103 ft 508 kts 98°
2026-05-07 16:03 60.12967 13.28080 37106 ft 508 kts 98°
2026-05-07 16:03 60.12009 13.42040 37094 ft 509 kts 98°
2026-05-07 16:04 60.11034 13.56098 37100 ft 509 kts 99°
2026-05-07 16:04 60.10058 13.70147 37104 ft 509 kts 99°
2026-05-07 16:05 60.09064 13.84189 37108 ft 509 kts 99°
2026-05-07 16:05 60.08039 13.98237 37112 ft 509 kts 99°
2026-05-07 16:06 60.06997 14.12275 37105 ft 509 kts 99°
2026-05-07 16:06 60.06477 14.19224 36928 ft 500 kts 99°
2026-05-07 16:06 60.05967 14.26054 36667 ft 493 kts 99°
2026-05-07 16:06 60.05458 14.32825 36287 ft 490 kts 99°
2026-05-07 16:07 60.04946 14.39555 35736 ft 489 kts 99°
2026-05-07 16:07 60.04434 14.46265 35221 ft 487 kts 99°
2026-05-07 16:07 60.03922 14.52970 34664 ft 487 kts 98°
2026-05-07 16:07 60.03407 14.59647 34096 ft 487 kts 98°
2026-05-07 16:08 60.02885 14.66342 33460 ft 486 kts 98°
2026-05-07 16:08 60.02360 14.72991 32889 ft 483 kts 98°
2026-05-07 16:08 60.01832 14.79605 32291 ft 481 kts 98°
2026-05-07 16:08 60.01302 14.86192 31688 ft 479 kts 98°
2026-05-07 16:09 60.00779 14.92673 31077 ft 478 kts 98°
2026-05-07 16:09 60.00246 14.99233 30455 ft 477 kts 98°
2026-05-07 16:09 59.99712 15.05763 29793 ft 476 kts 98°
2026-05-07 16:09 59.99179 15.12260 29175 ft 472 kts 98°
2026-05-07 16:10 59.98650 15.18713 28560 ft 468 kts 98°
2026-05-07 16:10 59.98122 15.25118 27947 ft 465 kts 98°
2026-05-07 16:10 59.97596 15.31463 27341 ft 462 kts 98°
2026-05-07 16:10 59.97067 15.37762 26741 ft 459 kts 99°
2026-05-07 16:11 59.96536 15.44027 26146 ft 455 kts 99°
2026-05-07 16:11 59.96007 15.50236 25554 ft 453 kts 99°
2026-05-07 16:11 59.95480 15.56404 24983 ft 450 kts 99°
2026-05-07 16:11 59.94954 15.62528 24431 ft 446 kts 99°
2026-05-07 16:12 59.94431 15.68608 23877 ft 443 kts 99°
2026-05-07 16:12 59.93906 15.74655 23304 ft 440 kts 99°
2026-05-07 16:12 59.93382 15.80624 22777 ft 434 kts 100°
2026-05-07 16:12 59.92864 15.86507 22269 ft 428 kts 100°
2026-05-07 16:13 59.92350 15.92320 21766 ft 422 kts 100°
2026-05-07 16:13 59.91848 15.97973 21280 ft 417 kts 100°
2026-05-07 16:13 59.91350 16.03567 21100 ft 402 kts 100°
2026-05-07 16:13 59.90868 16.08965 20892 ft 391 kts 100°
2026-05-07 16:14 59.90391 16.14245 20503 ft 385 kts 101°
2026-05-07 16:14 59.89918 16.19460 20069 ft 381 kts 101°
2026-05-07 16:14 59.89451 16.24624 19632 ft 377 kts 101°
2026-05-07 16:14 59.88987 16.29739 19194 ft 374 kts 101°
2026-05-07 16:15 59.88526 16.34817 18755 ft 370 kts 101°
2026-05-07 16:15 59.88067 16.39838 18335 ft 367 kts 101°
2026-05-07 16:15 59.87609 16.44813 17853 ft 364 kts 101°
2026-05-07 16:15 59.87150 16.49729 17380 ft 360 kts 101°
2026-05-07 16:16 59.86691 16.54610 16913 ft 357 kts 101°
2026-05-07 16:16 59.86234 16.59446 16454 ft 353 kts 101°
2026-05-07 16:16 59.85783 16.64225 16005 ft 350 kts 101°
2026-05-07 16:16 59.85337 16.68954 15565 ft 347 kts 101°
2026-05-07 16:17 59.84891 16.73643 15118 ft 344 kts 101°
2026-05-07 16:17 59.84447 16.78291 14689 ft 341 kts 101°
2026-05-07 16:17 59.84006 16.82903 14271 ft 337 kts 100°
2026-05-07 16:17 59.83565 16.87463 13857 ft 334 kts 100°
2026-05-07 16:18 59.83128 16.91988 13410 ft 331 kts 100°
2026-05-07 16:18 59.82701 16.96467 12969 ft 327 kts 99°
2026-05-07 16:18 59.82576 17.00937 12539 ft 322 kts 85°
2026-05-07 16:18 59.82818 17.05243 12115 ft 319 kts 82°
2026-05-07 16:19 59.83072 17.09600 11697 ft 316 kts 82°
2026-05-07 16:19 59.83319 17.13919 11287 ft 312 kts 83°
2026-05-07 16:19 59.83561 17.18188 10882 ft 309 kts 83°
2026-05-07 16:19 59.83739 17.22418 10480 ft 306 kts 91°
2026-05-07 16:20 59.83443 17.26565 10093 ft 302 kts 107°
2026-05-07 16:20 59.82647 17.30380 9641 ft 297 kts 120°
2026-05-07 16:20 59.81645 17.33931 9070 ft 294 kts 120°
2026-05-07 16:20 59.80648 17.37475 8241 ft 301 kts 120°
2026-05-07 16:21 59.79609 17.41179 7372 ft 302 kts 119°
2026-05-07 16:21 59.78603 17.44767 6570 ft 293 kts 119°
2026-05-07 16:21 59.77647 17.48172 6007 ft 279 kts 119°
2026-05-07 16:21 59.76759 17.51536 5593 ft 273 kts 109°
2026-05-07 16:22 59.76527 17.55218 5208 ft 270 kts 81°
2026-05-07 16:22 59.77038 17.58758 5008 ft 265 kts 69°
2026-05-07 16:22 59.77677 17.62145 5010 ft 261 kts 68°
2026-05-07 16:22 59.78321 17.65485 4798 ft 254 kts 68°
2026-05-07 16:23 59.78935 17.68642 4502 ft 236 kts 68°
2026-05-07 16:23 59.79516 17.71651 4287 ft 230 kts 68°
2026-05-07 16:23 59.80087 17.74615 4107 ft 234 kts 68°
2026-05-07 16:23 59.80667 17.77628 3923 ft 231 kts 68°
2026-05-07 16:24 59.81240 17.80592 3734 ft 224 kts 68°
2026-05-07 16:24 59.81793 17.83475 3557 ft 223 kts 68°
2026-05-07 16:24 59.82334 17.86303 3417 ft 222 kts 68°
2026-05-07 16:24 59.82854 17.89196 3341 ft 221 kts 78°
2026-05-07 16:25 59.82881 17.92220 3271 ft 220 kts 95°
2026-05-07 16:25 59.82704 17.95232 3196 ft 218 kts 97°
2026-05-07 16:25 59.82497 17.98152 3129 ft 211 kts 101°
2026-05-07 16:25 59.81858 18.00699 3024 ft 208 kts 137°
2026-05-07 16:26 59.80576 18.01852 2849 ft 206 kts 179°
2026-05-07 16:26 59.79198 18.01174 2800 ft 205 kts 199°
2026-05-07 16:26 59.77829 18.00561 2693 ft 198 kts 190°
2026-05-07 16:26 59.76918 18.00249 2551 ft 195 kts 190°
2026-05-07 16:27 59.75167 17.99630 2210 ft 191 kts 190°
2026-05-07 16:27 59.73912 17.99174 1964 ft 175 kts 189°
2026-05-07 16:27 59.72750 17.98751 1722 ft 165 kts 189°
2026-05-07 16:27 59.71651 17.98351 1505 ft 159 kts 190°
2026-05-07 16:28 59.70581 17.97961 1284 ft 155 kts 189°
2026-05-07 16:28 59.69542 17.97582 1080 ft 145 kts 188°
2026-05-07 16:28 59.68589 17.97235 873 ft 136 kts 189°
2026-05-07 16:28 59.67659 17.96897 699 ft 135 kts 189°
2026-05-07 16:29 59.66734 17.96561 520 ft 135 kts 190°
2026-05-07 16:29 59.65794 17.96206 348 ft 138 kts 190°
2026-05-07 16:29 59.64857 17.95885 160 ft 135 kts 190°
2026-05-07 16:29 59.64007 17.95574 112 ft 107 kts 190°
2026-05-07 16:30 59.63583 17.95425 118 ft 40 kts 190°
2026-05-07 16:30 59.63377 17.95258 117 ft 31 kts 214°
2026-05-07 16:30 59.63241 17.95010 122 ft 18 kts 252°
2026-05-07 16:30 59.63285 17.94903 124 ft 12 kts 358°
2026-05-07 16:31 59.63452 17.94963 119 ft 25 kts 11°
2026-05-07 16:31 59.63634 17.95030 114 ft 29 kts 10°
2026-05-07 16:31 59.63844 17.95106 110 ft 32 kts 10°
2026-05-07 16:31 59.64072 17.95189 108 ft 34 kts 10°
2026-05-07 16:32 59.64303 17.95274 106 ft 34 kts 10°
2026-05-07 16:32 59.64541 17.95362 105 ft 32 kts 11°
2026-05-07 16:32 59.64751 17.95439 106 ft 31 kts 10°
2026-05-07 16:32 59.64966 17.95515 112 ft 31 kts
2026-05-07 16:33 59.65173 17.95449 117 ft 30 kts 345°
2026-05-07 16:33 59.65365 17.95347 126 ft 29 kts 345°
2026-05-07 16:33 59.65563 17.95242 128 ft 30 kts 345°
2026-05-07 16:33 59.65724 17.95137 124 ft 24 kts 319°
2026-05-07 16:34 59.65723 17.94808 122 ft 27 kts 256°
2026-05-07 16:34 59.65677 17.94443 125 ft 28 kts 256°
2026-05-07 16:34 59.65634 17.94104 121 ft 27 kts 256°
2026-05-07 16:34 59.65583 17.93706 113 ft 32 kts 256°
2026-05-07 16:35 59.65535 17.93386 111 ft 18 kts 227°
2026-05-07 16:35 59.65413 17.93366 112 ft 19 kts 166°
2026-05-07 16:35 59.65311 17.93427 112 ft 10 kts 135°
2026-05-07 16:35 59.65313 17.93538 112 ft 7 kts 76°
2026-05-07 16:36 59.65315 17.93556 110 ft 1 kts 76°
2026-05-07 16:36 59.65316 17.93561 111 ft 0 kts 76°